• En España
  • Lista de países
  • Para 7 días
  • Temperatura del agua
  • Mapa Satelital
  • El tiempo en el mapa
  • Informadores
  • user-avatar
    Iniciar sesión

    Tiempo cada hora Constantine

    Hoy, 23 Noviembre, Jueves

    Tiempo Temperatura Precipitaciones Viento Presión Humedad
    00:00 +12°C° 0 mm 2 mps 710 mmHg 42%
    01:00 +12°C° 0 mm 2 mps 710 mmHg 43%
    02:00 +12°C° 0 mm 2 mps 710 mmHg 44%
    03:00 +10°C° 0 mm 2 mps 710 mmHg 45%
    04:00 +10°C° 0 mm 2 mps 710 mmHg 46%
    05:00 +10°C° 0 mm 2 mps 710 mmHg 47%
    06:00 +10°C° 0 mm 2 mps 710 mmHg 47%
    07:00 +12°C° 0 mm 2 mps 711 mmHg 46%
    08:00 +13°C° 0 mm 1 mps 711 mmHg 44%
    09:00 +14°C° 0 mm 1 mps 712 mmHg 43%
    10:00 +15°C° 0 mm 1 mps 712 mmHg 39%
    11:00 +16°C° 0 mm 1 mps 712 mmHg 36%
    12:00 +18°C° 0 mm 1 mps 712 mmHg 33%
    13:00 +18°C° 0 mm 1 mps 712 mmHg 34%
    14:00 +16°C° 0 mm 1 mps 712 mmHg 36%
    15:00 +16°C° 0 mm 1 mps 712 mmHg 37%
    16:00 +15°C° 0 mm 1 mps 712 mmHg 41%
    17:00 +14°C° 0 mm 1 mps 712 mmHg 46%
    18:00 +12°C° 0 mm 1 mps 712 mmHg 50%
    19:00 +12°C° 0 mm 1 mps 712 mmHg 51%
    20:00 +11°C° 0 mm 1 mps 712 mmHg 51%
    21:00 +11°C° 0 mm 1 mps 713 mmHg 52%
    22:00 +11°C° 0 mm 1 mps 713 mmHg 52%
    23:00 +10°C° 0 mm 1 mps 712 mmHg 52%

    Mañana, 24 Noviembre, Viernes

    Tiempo Temperatura Precipitaciones Viento Presión Humedad
    00:00 +10°C° 0 mm 1 mps 712 mmHg 51%
    01:00 +10°C° 0 mm 1 mps 712 mmHg 51%
    02:00 +9°C° 0 mm 1 mps 712 mmHg 51%
    03:00 +9°C° 0 mm 1 mps 712 mmHg 50%
    04:00 +9°C° 0 mm 1 mps 712 mmHg 50%
    05:00 +9°C° 0 mm 1 mps 712 mmHg 49%
    06:00 +9°C° 0 mm 1 mps 712 mmHg 49%
    07:00 +11°C° 0 mm 1 mps 713 mmHg 44%
    08:00 +13°C° 0 mm 1 mps 714 mmHg 39%
    09:00 +15°C° 0 mm 1 mps 714 mmHg 34%
    10:00 +16°C° 0 mm 1 mps 714 mmHg 30%
    11:00 +18°C° 0 mm 1 mps 714 mmHg 27%
    12:00 +17°C° 0 mm 0 mps 714 mmHg 24%
    13:00 +17°C° 0 mm 0 mps 714 mmHg 25%
    14:00 +17°C° 0 mm 0 mps 714 mmHg 26%
    15:00 +19°C° 0 mm 1 mps 713 mmHg 27%
    16:00 +15°C° 0 mm 0 mps 713 mmHg 32%
    17:00 +14°C° 0 mm 0 mps 713 mmHg 36%
    18:00 +12°C° 0 mm 0 mps 713 mmHg 41%
    19:00 +12°C° 0 mm 1 mps 713 mmHg 40%
    20:00 +12°C° 0 mm 1 mps 713 mmHg 39%
    21:00 +12°C° 0 mm 1 mps 713 mmHg 38%
    22:00 +12°C° 0 mm 1 mps 713 mmHg 36%
    23:00 +12°C° 0 mm 2 mps 713 mmHg 35%

    Pasado mañana, 25 Noviembre, Sábado

    Tiempo Temperatura Precipitaciones Viento Presión Humedad
    00:00 +12°C° 0 mm 2 mps 713 mmHg 33%
    01:00 +10°C° 0 mm 2 mps 713 mmHg 33%
    02:00 +10°C° 0 mm 2 mps 712 mmHg 32%
    03:00 +10°C° 0 mm 2 mps 712 mmHg 32%
    04:00 +10°C° 0 mm 2 mps 712 mmHg 32%
    05:00 +10°C° 0 mm 2 mps 712 mmHg 32%
    06:00 +10°C° 0 mm 2 mps 712 mmHg 32%
    07:00 +12°C° 0 mm 2 mps 713 mmHg 31%
    08:00 +14°C° 0 mm 2 mps 713 mmHg 30%
    09:00 +16°C° 0 mm 2 mps 714 mmHg 29%
    10:00 +18°C° 0 mm 2 mps 714 mmHg 26%
    11:00 +19°C° 0 mm 2 mps 714 mmHg 23%
    12:00 +21°C° 0 mm 2 mps 713 mmHg 21%
    13:00 +20°C° 0 mm 2 mps 713 mmHg 23%
    14:00 +20°C° 0 mm 2 mps 713 mmHg 26%
    15:00 +20°C° 0 mm 2 mps 713 mmHg 28%
    16:00 +18°C° 0 mm 2 mps 713 mmHg 32%
    17:00 +16°C° 0 mm 1 mps 713 mmHg 35%
    18:00 +14°C° 0 mm 1 mps 713 mmHg 39%
    19:00 +14°C° 0 mm 1 mps 713 mmHg 40%
    20:00 +13°C° 0 mm 1 mps 713 mmHg 41%
    21:00 +13°C° 0 mm 1 mps 713 mmHg 41%
    22:00 +13°C° 0 mm 1 mps 713 mmHg 42%
    23:00 +12°C° 0 mm 1 mps 713 mmHg 42%

    26 Noviembre, Domingo

    Tiempo Temperatura Precipitaciones Viento Presión Humedad
    00:00 +12°C° 0 mm 1 mps 713 mmHg 43%
    01:00 +11°C° 0 mm 1 mps 713 mmHg 43%
    02:00 +11°C° 0 mm 1 mps 713 mmHg 43%
    03:00 +11°C° 0 mm 1 mps 713 mmHg 43%
    04:00 +11°C° 0 mm 1 mps 713 mmHg 44%
    05:00 +10°C° 0 mm 1 mps 713 mmHg 45%
    06:00 +9°C° 0 mm 0 mps 714 mmHg 46%
    07:00 +12°C° 0 mm 1 mps 714 mmHg 45%
    08:00 +13°C° 0 mm 1 mps 715 mmHg 44%
    09:00 +15°C° 0 mm 1 mps 716 mmHg 44%
    10:00 +16°C° 0 mm 2 mps 716 mmHg 46%
    11:00 +16°C° 0 mm 2 mps 715 mmHg 47%
    12:00 +17°C° 0 mm 2 mps 715 mmHg 49%
    13:00 +16°C° 0 mm 2 mps 715 mmHg 54%
    14:00 +16°C° 0 mm 3 mps 715 mmHg 60%
    15:00 +14°C° 0 mm 3 mps 715 mmHg 65%
    16:00 +13°C° 0 mm 3 mps 715 mmHg 72%
    17:00 +14°C° 0 mm 2 mps 716 mmHg 78%
    18:00 +13°C° 0 mm 2 mps 716 mmHg 85%
    19:00 +12°C° 0 mm 2 mps 716 mmHg 86%
    20:00 +12°C° 0 mm 2 mps 716 mmHg 87%
    21:00 +12°C° 0 mm 1 mps 717 mmHg 88%
    22:00 +11°C° 0 mm 1 mps 716 mmHg 89%
    23:00 +11°C° 0 mm 1 mps 716 mmHg 89%

    27 Noviembre, Lunes

    Tiempo Temperatura Precipitaciones Viento Presión Humedad
    00:00 +11°C° 0 mm 1 mps 716 mmHg 90%
    01:00 +10°C° 0 mm 1 mps 716 mmHg 90%
    02:00 +10°C° 0 mm 1 mps 715 mmHg 90%
    03:00 +10°C° 0 mm 1 mps 715 mmHg 91%
    04:00 +10°C° 0 mm 1 mps 715 mmHg 92%
    05:00 +9°C° 0 mm 1 mps 715 mmHg 93%
    06:00 +9°C° 0 mm 1 mps 715 mmHg 94%
    07:00 +10°C° 0 mm 1 mps 715 mmHg 88%
    08:00 +11°C° 0 mm 1 mps 716 mmHg 83%
    09:00 +12°C° 0 mm 1 mps 716 mmHg 78%
    10:00 +13°C° 0 mm 1 mps 715 mmHg 70%
    11:00 +15°C° 0 mm 1 mps 715 mmHg 63%
    12:00 +16°C° 0 mm 1 mps 715 mmHg 55%
    13:00 +16°C° 0 mm 2 mps 714 mmHg 55%
    14:00 +16°C° 0 mm 2 mps 714 mmHg 54%
    15:00 +16°C° 0 mm 3 mps 714 mmHg 53%
    16:00 +15°C° 0 mm 2 mps 714 mmHg 60%
    17:00 +14°C° 0 mm 2 mps 714 mmHg 67%
    18:00 +12°C° 0 mm 1 mps 713 mmHg 75%
    19:00 +12°C° 0 mm 1 mps 713 mmHg 77%
    20:00 +12°C° 0 mm 1 mps 713 mmHg 79%
    21:00 +11°C° 0 mm 1 mps 713 mmHg 82%
    22:00 +11°C° 0 mm 1 mps 713 mmHg 82%
    23:00 +11°C° 0 mm 1 mps 713 mmHg 81%

    28 Noviembre, Martes

    Tiempo Temperatura Precipitaciones Viento Presión Humedad
    00:00 +11°C° 0 mm 1 mps 713 mmHg 81%
    01:00 +11°C° 0 mm 1 mps 712 mmHg 80%
    02:00 +11°C° 0 mm 1 mps 712 mmHg 78%
    03:00 +11°C° 0 mm 1 mps 712 mmHg 76%
    04:00 +11°C° 0,1 mm 1 mps 712 mmHg 76%
    05:00 +11°C° 0,1 mm 1 mps 711 mmHg 75%
    06:00 +11°C° 0,1 mm 1 mps 711 mmHg 75%
    07:00 +12°C° 0 mm 1 mps 711 mmHg 68%
    08:00 +13°C° 0 mm 1 mps 711 mmHg 62%
    09:00 +14°C° 0 mm 1 mps 712 mmHg 55%
    10:00 +15°C° 0 mm 1 mps 711 mmHg 50%
    11:00 +16°C° 0 mm 1 mps 711 mmHg 46%
    12:00 +18°C° 0 mm 2 mps 710 mmHg 41%
    13:00 +18°C° 0 mm 2 mps 710 mmHg 41%
    14:00 +18°C° 0 mm 2 mps 709 mmHg 41%
    15:00 +18°C° 0 mm 2 mps 709 mmHg 41%
    16:00 +16°C° 0 mm 2 mps 709 mmHg 47%
    17:00 +15°C° 0 mm 1 mps 708 mmHg 52%
    18:00 +14°C° 0 mm 1 mps 708 mmHg 58%
    19:00 +13°C° 0 mm 2 mps 708 mmHg 57%
    20:00 +13°C° 0 mm 2 mps 708 mmHg 56%
    21:00 +13°C° 0 mm 2 mps 708 mmHg 56%
    22:00 +13°C° 0 mm 2 mps 707 mmHg 55%
    23:00 +12°C° 0 mm 3 mps 707 mmHg 55%
    Mostrar más